QTR927 YSSY-YMML

Flight info

Callsign QTR927
Flight time 1h 7m
Altitude 36000
Route WOL H65 LEECE Q29 ML
Aircraft A35K/H-SDE2E3GHIJ3J4J5LM1ORWXY/LB1D1

Departure

Time 2026-05-04 10:04
Airport Sydney Kingsford Smith International Airport (YSSY)

Arrival

Time 2026-05-04 11:12
Airport Melbourne Airport (YMML)
Time Latitude Longitude Altitude Speed Heading
2026-05-04 09:42 -33.93922 151.16992 27 ft 0 kts 253°
2026-05-04 09:51 -33.93919 151.17002 27 ft 2 kts 251°
2026-05-04 09:51 -33.93913 151.17021 26 ft 2 kts 251°
2026-05-04 09:51 -33.93908 151.17040 26 ft 2 kts 249°
2026-05-04 09:52 -33.93901 151.17058 25 ft 2 kts 243°
2026-05-04 09:52 -33.93892 151.17074 25 ft 2 kts 219°
2026-05-04 09:52 -33.93878 151.17080 25 ft 1 kts 168°
2026-05-04 09:52 -33.93875 151.17079 26 ft 0 kts 167°
2026-05-04 09:54 -33.93899 151.17085 27 ft 7 kts 168°
2026-05-04 09:54 -33.93962 151.17111 31 ft 12 kts 142°
2026-05-04 09:54 -33.93975 151.17130 30 ft 0 kts 123°
2026-05-04 09:55 -33.93979 151.17156 31 ft 8 kts 92°
2026-05-04 09:56 -33.94005 151.17223 32 ft 7 kts 139°
2026-05-04 09:56 -33.94028 151.17234 27 ft 8 kts 164°
2026-05-04 09:56 -33.94116 151.17259 28 ft 16 kts 166°
2026-05-04 09:56 -33.94241 151.17294 29 ft 21 kts 167°
2026-05-04 09:57 -33.94387 151.17332 32 ft 22 kts 168°
2026-05-04 09:57 -33.94550 151.17374 32 ft 26 kts 168°
2026-05-04 09:57 -33.94704 151.17413 32 ft 23 kts 168°
2026-05-04 09:57 -33.94885 151.17461 30 ft 28 kts 167°
2026-05-04 09:58 -33.95071 151.17509 26 ft 29 kts 168°
2026-05-04 09:58 -33.95273 151.17561 25 ft 31 kts 168°
2026-05-04 09:58 -33.95490 151.17617 27 ft 32 kts 168°
2026-05-04 10:00 -33.96435 151.17908 30 ft 0 kts 102°
2026-05-04 10:02 -33.96331 151.18041 30 ft 9 kts 347°
2026-05-04 10:04 -33.96321 151.18038 30 ft 6 kts 347°
2026-05-04 10:04 -33.96021 151.17961 28 ft 91 kts 347°
2026-05-04 10:04 -33.95130 151.17728 26 ft 168 kts 348°
2026-05-04 10:04 -33.93883 151.17388 742 ft 186 kts 348°
2026-05-04 10:05 -33.92691 151.16773 1865 ft 195 kts 324°
2026-05-04 10:05 -33.91803 151.15361 2515 ft 228 kts 302°
2026-05-04 10:05 -33.91027 151.13650 3460 ft 239 kts 303°
2026-05-04 10:05 -33.90177 151.11936 4631 ft 239 kts 306°
2026-05-04 10:06 -33.89286 151.10229 5809 ft 242 kts 305°
2026-05-04 10:06 -33.88383 151.08512 7033 ft 243 kts 305°
2026-05-04 10:06 -33.87462 151.06790 8260 ft 247 kts 305°
2026-05-04 10:08 -33.81738 150.94012 13333 ft 351 kts 273°
2026-05-04 10:08 -33.81931 150.91041 14290 ft 361 kts 266°
2026-05-04 10:08 -33.82544 150.88065 15198 ft 374 kts 254°
2026-05-04 10:08 -33.83868 150.85319 16187 ft 389 kts 235°
2026-05-04 10:09 -33.85976 150.83189 17188 ft 406 kts 215°
2026-05-04 10:09 -33.88662 150.81967 18159 ft 423 kts 195°
2026-05-04 10:09 -33.91647 150.81829 19001 ft 439 kts 176°
2026-05-04 10:09 -33.94647 150.82693 19814 ft 449 kts 166°
2026-05-04 10:10 -33.97667 150.83764 20623 ft 455 kts 168°
2026-05-04 10:10 -34.00750 150.84726 21462 ft 461 kts 170°
2026-05-04 10:10 -34.03899 150.85563 22347 ft 466 kts 173°
2026-05-04 10:10 -34.07110 150.86259 23160 ft 472 kts 175°
2026-05-04 10:11 -34.10350 150.86798 23925 ft 477 kts 178°
2026-05-04 10:11 -34.13665 150.87165 24670 ft 480 kts 181°
2026-05-04 10:11 -34.17016 150.87352 25423 ft 480 kts 183°
2026-05-04 10:11 -34.20322 150.87315 26178 ft 473 kts 191°
2026-05-04 10:12 -34.23606 150.86775 26688 ft 480 kts 196°
2026-05-04 10:12 -34.26915 150.86031 27335 ft 486 kts 197°
2026-05-04 10:12 -34.30259 150.85242 27848 ft 491 kts 198°
2026-05-04 10:12 -34.33630 150.84439 28024 ft 494 kts 198°
2026-05-04 10:13 -34.40357 150.82831 28033 ft 497 kts 198°
2026-05-04 10:13 -34.47189 150.81191 28032 ft 498 kts 198°
2026-05-04 10:14 -34.53651 150.78748 28031 ft 481 kts 214°
2026-05-04 10:16 -34.68233 150.58624 29502 ft 456 kts 242°
2026-05-04 10:16 -34.70060 150.55500 30585 ft 450 kts 242°
2026-05-04 10:16 -34.71882 150.52429 31628 ft 443 kts 242°
2026-05-04 10:16 -34.73683 150.49421 32670 ft 436 kts 242°
2026-05-04 10:17 -34.75435 150.46504 33630 ft 430 kts 242°
2026-05-04 10:17 -34.77191 150.43580 34494 ft 425 kts 243°
2026-05-04 10:19 -34.89666 150.22580 36050 ft 469 kts 242°
2026-05-04 10:19 -34.91591 150.19342 36049 ft 472 kts 242°
2026-05-04 10:19 -34.95460 150.12861 36057 ft 473 kts 242°
2026-05-04 10:20 -34.99330 150.06354 36059 ft 473 kts 242°
2026-05-04 10:20 -35.03160 149.99884 36064 ft 474 kts 242°
2026-05-04 10:21 -35.07022 149.93349 36067 ft 474 kts 242°
2026-05-04 10:21 -35.10874 149.86813 36073 ft 474 kts 242°
2026-05-04 10:22 -35.15988 149.78109 36068 ft 474 kts 242°
2026-05-04 10:23 -35.19835 149.71553 36065 ft 474 kts 242°
2026-05-04 10:25 -35.35171 149.45300 36090 ft 475 kts 242°
2026-05-04 10:25 -35.39006 149.38704 36093 ft 475 kts 242°
2026-05-04 10:26 -35.42840 149.32098 36112 ft 475 kts 242°
2026-05-04 10:26 -35.46670 149.25483 36099 ft 476 kts 243°
2026-05-04 10:27 -35.50502 149.18854 36096 ft 476 kts 243°
2026-05-04 10:27 -35.54328 149.12223 36085 ft 476 kts 242°
2026-05-04 10:28 -35.58128 149.05627 36078 ft 476 kts 243°
2026-05-04 10:28 -35.61961 148.98958 36081 ft 477 kts 243°
2026-05-04 10:29 -35.65782 148.92302 36086 ft 476 kts 243°
2026-05-04 10:29 -35.69599 148.85637 36084 ft 476 kts 243°
2026-05-04 10:30 -35.73408 148.78971 36083 ft 476 kts 243°
2026-05-04 10:30 -35.77218 148.72289 36081 ft 476 kts 243°
2026-05-04 10:31 -35.80998 148.65649 36084 ft 476 kts 243°
2026-05-04 10:32 -35.94299 148.42155 36079 ft 478 kts 243°
2026-05-04 10:33 -35.98083 148.35416 36086 ft 477 kts 243°
2026-05-04 10:33 -36.01839 148.28720 36079 ft 478 kts 243°
2026-05-04 10:34 -36.05631 148.21946 36086 ft 479 kts 243°
2026-05-04 10:34 -36.09420 148.15166 36082 ft 480 kts 243°
2026-05-04 10:35 -36.13217 148.08364 36084 ft 480 kts 243°
2026-05-04 10:35 -36.17021 148.01564 36080 ft 480 kts 243°
2026-05-04 10:36 -36.20824 147.94752 36083 ft 480 kts 243°
2026-05-04 10:36 -36.24588 147.87992 36080 ft 479 kts 243°
2026-05-04 10:37 -36.28366 147.81195 36081 ft 479 kts 242°
2026-05-04 10:37 -36.32155 147.74362 36075 ft 481 kts 242°
2026-05-04 10:39 -36.45382 147.50358 36063 ft 481 kts 242°
2026-05-04 10:40 -36.49126 147.43527 36057 ft 481 kts 242°
2026-05-04 10:40 -36.52894 147.36644 36064 ft 481 kts 243°
2026-05-04 10:41 -36.56654 147.29763 36052 ft 481 kts 242°
2026-05-04 10:41 -36.60410 147.22876 36052 ft 481 kts 243°
2026-05-04 10:42 -36.64159 147.15988 36056 ft 481 kts 243°
2026-05-04 10:42 -36.67907 147.09078 36071 ft 481 kts 243°
2026-05-04 10:43 -36.71628 147.02214 36045 ft 481 kts 243°
2026-05-04 10:45 -36.86583 146.74456 36028 ft 483 kts 243°
2026-05-04 10:45 -36.90328 146.67475 36028 ft 483 kts 243°
2026-05-04 10:46 -36.94065 146.60493 36036 ft 483 kts 243°
2026-05-04 10:46 -36.97795 146.53511 35841 ft 476 kts 243°
2026-05-04 10:46 -36.99631 146.50081 35028 ft 475 kts 243°
2026-05-04 10:47 -37.01478 146.46611 33851 ft 481 kts 244°
2026-05-04 10:47 -37.03334 146.43110 32565 ft 485 kts 244°
2026-05-04 10:47 -37.05205 146.39579 31272 ft 489 kts 245°
2026-05-04 10:47 -37.07067 146.36064 30315 ft 488 kts 245°
2026-05-04 10:49 -37.19612 146.12383 25299 ft 445 kts 242°
2026-05-04 10:49 -37.21307 146.09157 24628 ft 441 kts 241°
2026-05-04 10:50 -37.22985 146.05962 23967 ft 436 kts 241°
2026-05-04 10:51 -37.34129 145.84729 19290 ft 395 kts 240°
2026-05-04 10:52 -37.35635 145.81854 18617 ft 390 kts 240°
2026-05-04 10:52 -37.37121 145.79019 17922 ft 387 kts 240°
2026-05-04 10:52 -37.38591 145.76210 17244 ft 383 kts 240°
2026-05-04 10:54 -37.48719 145.57449 12643 ft 359 kts 237°
2026-05-04 10:54 -37.50199 145.54943 11993 ft 355 kts 237°
2026-05-04 10:56 -37.58899 145.40012 10803 ft 255 kts 239°
2026-05-04 10:56 -37.59932 145.38222 10628 ft 251 kts 239°
2026-05-04 10:56 -37.60961 145.36434 10340 ft 251 kts 239°
2026-05-04 10:57 -37.61988 145.34651 10022 ft 250 kts 239°
2026-05-04 10:57 -37.63012 145.32870 9754 ft 261 kts 239°
2026-05-04 10:57 -37.64101 145.30974 9656 ft 266 kts 239°
2026-05-04 10:57 -37.65185 145.29097 9163 ft 266 kts 239°
2026-05-04 10:58 -37.66277 145.27207 8687 ft 266 kts 239°
2026-05-04 10:58 -37.67363 145.25323 8374 ft 262 kts 238°
2026-05-04 10:58 -37.68407 145.23520 8142 ft 245 kts 238°
2026-05-04 10:58 -37.69383 145.21836 7752 ft 231 kts 239°
2026-05-04 10:59 -37.70316 145.20223 7439 ft 226 kts 239°
2026-05-04 10:59 -37.71240 145.18612 7168 ft 227 kts 239°
2026-05-04 10:59 -37.72147 145.17028 6899 ft 215 kts 239°
2026-05-04 10:59 -37.72993 145.15560 6670 ft 199 kts 239°
2026-05-04 11:00 -37.73779 145.14195 6409 ft 186 kts 240°
2026-05-04 11:01 -37.78736 145.05535 5081 ft 162 kts 240°
2026-05-04 11:02 -37.79384 145.04406 4753 ft 156 kts 241°
2026-05-04 11:02 -37.80020 145.03288 4499 ft 164 kts 241°
2026-05-04 11:05 -37.81889 144.86637 2575 ft 149 kts 331°
2026-05-04 11:06 -37.80880 144.86400 2503 ft 141 kts 343°
2026-05-04 11:06 -37.79966 144.86249 2464 ft 125 kts 340°
2026-05-04 11:06 -37.79128 144.86090 2430 ft 123 kts 337°
2026-05-04 11:06 -37.78279 144.85915 2243 ft 123 kts 339°
2026-05-04 11:08 -37.72748 144.84878 1188 ft 118 kts 348°
2026-05-04 11:10 -37.67384 144.83877 377 ft 69 kts 351°
2026-05-04 11:12 -37.66513 144.83913 410 ft 0 kts 91°
2026-05-04 11:12 -37.66513 144.83921 400 ft 4 kts 91°
2026-05-04 11:12 -37.66516 144.83995 403 ft 11 kts 93°
2026-05-04 11:12 -37.66546 144.84111 406 ft 17 kts 127°
2026-05-04 11:13 -37.66659 144.84173 402 ft 19 kts 156°
2026-05-04 11:13 -37.66692 144.84317 399 ft 20 kts 81°
2026-05-04 11:13 -37.66671 144.84483 404 ft 10 kts 96°
2026-05-04 11:13 -37.66733 144.84539 399 ft 14 kts 171°